Theta_e
327 328 329 330 331 332 332 332 332 333 333 333 334 334 333 334 335 335 336 336 334 334 335 334 333 334 334 333 334 333 332 333 332 332 331 330 331 331 331 331 332 332
325 326 326 328 329 331 332 332 332 332 333 333 333 334 334 335 334 334 335 335 335 335 335 334 333 334 334 333 334 334 333 333 333 332 332 331 332 333 332 331 331 332
323 324 325 326 327 328 330 331 332 332 332 332 333 333 334 335 334 333 332 333 334 334 333 333 334 334 334 333 334 333 333 333 333 333 332 332 332 333 333 332 331 332
321 322 324 324 325 326 328 330 331 332 332 332 332 332 333 333 333 332 332 333 333 333 332 333 334 334 333 333 333 333 333 334 334 333 332 332 332 332 332 332 332 331
320 321 322 322 323 324 326 328 330 331 332 331 332 332 332 332 332 332 331 331 332 333 332 331 333 334 333 332 333 333 333 333 334 333 333 333 332 331 332 332 331 331
318 319 320 320 321 322 324 326 328 330 331 331 331 331 332 331 331 331 331 331 331 332 331 331 333 333 332 332 332 332 332 332 333 333 333 333 333 332 332 331 331 331
317 318 318 318 319 320 322 324 326 328 329 330 331 331 331 331 331 331 331 330 330 331 331 331 333 333 332 332 332 331 331 331 332 333 333 332 332 332 332 332 331 331
316 316 317 317 317 318 319 321 322 324 326 328 330 330 330 330 330 330 330 330 330 330 330 331 332 332 331 331 331 331 330 331 332 333 332 332 332 332 332 332 332 333
315 315 316 316 316 316 317 318 319 321 324 327 329 329 330 329 328 328 328 329 329 329 329 331 331 331 330 331 331 330 330 331 333 333 333 332 332 332 332 332 333 333
314 314 315 315 315 315 315 315 317 319 321 324 327 328 328 328 328 326 326 327 329 329 330 331 331 330 331 330 330 330 330 332 332 332 332 332 332 332 332 332 332 331
313 313 314 314 314 314 314 313 314 316 318 321 325 328 328 327 327 326 325 326 328 329 329 329 329 330 330 329 329 330 330 329 331 332 333 333 333 332 332 331 331 331
313 313 313 313 313 313 313 312 312 313 315 318 321 325 326 326 325 325 325 326 328 329 329 329 329 330 330 328 328 329 329 329 330 331 332 333 333 332 332 331 331 331
312 312 312 312 313 312 312 312 311 311 313 315 317 320 322 323 323 325 326 327 328 329 329 329 329 330 329 328 328 328 329 330 329 327 330 333 333 333 332 332 332 332
312 312 312 312 312 312 311 311 310 309 310 312 314 316 317 319 320 322 324 327 328 328 329 328 328 329 328 328 328 328 329 329 327 327 331 333 333 333 333 332 331 331
311 311 311 311 311 311 311 310 310 308 308 309 310 311 313 315 317 318 320 324 326 326 327 327 327 327 327 326 327 328 328 328 328 330 333 333 332 333 332 331 331 331
310 311 311 310 310 310 310 310 309 308 308 307 308 309 309 311 313 314 315 318 322 324 326 326 326 325 326 326 326 327 328 328 327 329 331 331 332 332 332 331 331 332
309 310 310 310 310 309 309 309 309 308 307 307 307 307 307 308 309 310 310 312 317 321 323 324 323 323 324 325 326 326 327 327 327 327 328 330 332 332 332 332 332 332
309 309 309 309 309 309 309 308 308 308 307 306 306 306 306 306 307 307 307 308 311 315 317 318 318 319 321 322 324 325 325 327 327 327 327 329 330 331 330 331 331 331
307 308 308 308 308 308 308 308 307 307 307 306 306 305 304 305 305 306 305 305 307 309 311 312 312 314 316 317 320 322 325 327 328 327 327 328 328 328 329 330 331 331
306 307 307 307 307 307 307 307 307 307 306 306 306 305 304 303 304 304 304 304 304 304 306 307 308 309 311 313 315 318 321 325 327 328 327 328 327 327 327 329 330 331
306 306 306 306 306 306 307 306 306 306 306 306 306 305 305 304 303 303 303 302 302 302 302 304 304 305 307 310 313 316 319 322 324 326 327 328 328 326 327 328 329 330
305 305 305 306 306 306 306 306 306 306 306 305 306 306 305 304 304 303 302 302 302 301 300 301 301 301 304 307 310 313 316 318 320 321 324 327 328 327 326 326 327 328
305 305 305 305 305 305 305 305 305 305 305 305 305 305 305 305 304 304 303 302 301 300 300 299 299 299 301 304 307 309 312 314 316 318 322 325 327 326 325 325 326 327
304 304 304 304 304 304 304 304 304 305 305 305 305 305 305 305 305 304 304 303 302 301 300 299 298 298 300 302 304 306 309 311 312 314 318 322 325 326 325 324 324 325
303 303 304 304 304 304 303 304 304 304 304 304 304 304 304 304 304 304 304 303 302 301 300 299 298 297 298 300 302 304 306 309 310 312 314 317 321 324 325 323 320 322
303 303 303 303 303 303 303 303 303 303 303 303 303 303 303 303 303 303 303 303 303 302 301 300 298 297 297 298 301 302 304 306 307 309 311 313 315 318 318 315 314 316
Wind_Speed
12 13 14 14 13 14 14 14 15 15 16 17 15 16 17 18 18 17 17 19 19 18 19 18 17 17 18 18 17 18 18 18 20 21 21 22 20 18 17 18 18 16
13 13 14 14 14 15 16 15 15 16 17 18 17 16 17 17 18 19 18 19 19 19 20 19 19 20 20 20 19 19 18 18 20 21 21 21 18 15 16 17 17 17
13 14 14 14 15 16 17 17 17 18 18 19 19 18 17 16 18 21 21 20 22 23 22 20 20 22 23 21 21 21 19 18 19 19 19 19 17 15 15 16 15 17
14 14 14 14 15 16 17 17 18 19 18 18 19 19 19 17 17 20 23 22 21 23 24 24 24 24 24 23 21 20 19 18 18 19 18 17 18 17 15 14 15 17
15 15 15 15 15 16 17 17 18 19 19 19 19 19 19 19 17 20 24 25 24 23 25 26 26 23 22 22 22 20 19 18 17 18 18 17 17 17 16 14 15 16
15 15 16 16 17 18 18 17 18 19 20 21 20 19 20 20 20 21 23 26 27 26 25 26 26 25 22 20 19 19 18 18 18 18 18 17 16 16 16 16 17 18
17 16 16 17 18 19 18 17 18 19 20 22 22 21 20 19 21 23 24 26 27 27 25 24 25 24 21 20 19 19 19 18 17 18 17 16 15 16 17 17 18 18
18 17 17 18 19 19 19 19 20 20 20 22 22 22 21 19 22 25 26 26 24 23 22 20 20 20 21 22 21 21 22 20 16 16 17 17 16 17 17 17 17 15
20 19 19 20 21 20 21 22 21 21 21 22 22 24 23 22 24 26 26 24 20 19 18 16 16 17 19 22 22 21 23 20 16 16 16 17 17 17 17 17 16 15
21 20 20 21 22 21 22 23 23 22 22 22 23 25 24 22 23 26 26 23 19 17 16 14 15 15 16 20 22 22 22 19 17 17 17 17 17 17 18 18 17 17
21 21 21 22 22 22 23 25 25 24 23 24 24 25 23 22 24 27 25 21 18 16 14 15 16 16 16 21 23 23 22 21 19 18 17 17 17 17 19 18 17 17
22 22 22 22 22 23 23 25 27 26 25 24 25 24 23 22 24 25 23 18 14 11 12 13 14 15 16 21 25 24 24 23 20 18 17 16 16 16 18 18 17 17
22 22 22 23 23 23 23 24 26 27 26 25 25 24 23 24 26 25 18 12 9 10 12 12 12 14 15 20 24 23 21 21 18 17 16 15 15 16 16 16 17 18
22 22 22 23 23 22 23 23 25 27 28 26 26 25 25 25 27 27 21 12 9 10 10 11 13 14 16 19 21 21 21 21 19 16 15 15 15 16 16 16 17 18
22 22 23 23 23 23 24 24 25 26 27 27 27 26 26 26 26 27 26 20 16 14 10 9 11 14 17 18 18 20 22 20 17 15 14 14 15 16 17 18 18 17
22 22 23 23 24 24 24 24 25 26 27 26 27 27 26 27 26 27 27 23 21 19 13 7 6 8 13 16 18 21 20 18 17 16 16 16 15 15 16 17 17 15
22 22 23 23 24 24 24 24 24 25 26 25 26 27 26 27 27 28 29 26 22 20 16 9 6 7 9 13 17 19 17 16 19 18 15 15 14 15 16 15 16 15
22 22 23 23 24 24 24 24 24 25 26 26 26 27 26 26 26 27 28 28 23 20 18 15 12 11 10 11 14 16 15 16 17 17 16 16 15 16 16 15 15 15
22 22 22 23 23 23 23 24 24 25 26 26 26 26 26 25 25 25 26 27 26 24 21 19 19 16 14 14 15 15 15 17 18 17 16 18 18 17 16 15 14 14
22 22 22 23 23 23 23 23 24 25 25 25 25 26 27 26 25 25 25 25 26 26 24 21 22 22 21 19 18 16 16 17 19 19 18 19 20 19 17 15 13 12
22 22 22 22 22 23 23 23 24 24 24 24 25 25 26 26 25 24 24 25 25 26 26 24 23 25 25 22 19 18 17 17 19 20 20 19 19 20 19 16 12 11
21 21 22 22 22 22 23 23 23 24 24 24 24 24 24 25 25 24 23 23 24 26 28 28 27 27 27 24 21 19 18 18 17 18 18 18 18 19 20 17 12 10
21 21 22 22 22 22 23 23 23 23 23 23 23 23 23 24 24 24 23 21 22 25 28 31 33 32 30 27 23 21 19 18 16 15 16 17 17 18 17 14 10 9
20 21 21 21 22 22 22 22 22 22 22 22 22 22 22 22 22 23 23 22 22 24 26 30 34 34 33 31 26 22 20 18 15 15 15 15 16 17 14 9 7 7
20 20 21 21 22 22 22 22 22 22 22 22 22 21 22 22 21 21 22 22 23 23 23 27 32 33 34 35 30 25 21 18 15 14 15 15 15 15 9 1 1 4
20 20 20 21 21 22 22 22 21 22 22 22 22 22 22 22 21 21 21 21 23 24 22 25 30 31 33 36 33 28 24 19 15 14 14 14 12 7 2 6 4 3
Wind_Direction
333 330 327 322 315 307 302 298 295 294 290 283 277 272 271 270 270 267 259 253 248 242 240 238 233 227 218 213 212 210 208 203 198 200 205 209 211 211 213 216 214 210
338 335 331 325 317 312 310 304 295 288 284 281 279 274 270 269 268 267 265 260 251 243 240 236 232 227 219 212 211 211 210 204 200 200 203 207 209 206 208 214 213 213
338 334 330 325 320 316 314 309 301 293 286 281 278 273 269 269 267 266 267 265 255 246 240 234 228 224 220 215 212 212 210 205 202 201 203 207 208 205 207 208 206 211
335 331 329 326 323 320 315 309 304 300 295 289 284 277 272 271 268 264 265 263 256 247 241 237 229 224 223 219 212 212 211 207 203 202 202 204 208 211 213 209 205 211
334 333 333 331 329 326 321 312 305 302 300 296 291 284 278 275 271 265 261 259 257 252 245 240 232 226 226 221 215 216 216 210 205 203 202 203 206 210 212 208 206 210
338 338 336 335 334 331 326 317 310 307 304 302 298 289 282 279 278 272 263 258 258 255 248 239 227 223 229 228 222 224 225 217 207 204 204 205 207 210 212 209 207 210
344 341 339 339 338 335 332 326 320 314 307 306 305 297 289 285 282 279 273 267 262 255 248 233 220 219 226 230 226 226 229 225 213 208 208 208 209 213 215 213 211 210
349 346 342 341 341 340 338 333 328 322 312 308 307 302 299 296 291 287 285 281 274 265 252 230 216 218 224 226 224 224 228 227 219 216 215 212 212 216 217 214 213 212
354 351 347 346 345 344 342 338 332 327 321 313 306 304 303 301 298 294 290 286 281 272 260 238 223 226 227 226 224 226 230 226 219 221 220 216 216 217 220 217 211 209
358 354 351 350 348 346 344 342 337 331 327 321 313 308 307 306 302 298 293 284 272 269 268 255 239 235 234 231 227 228 232 227 218 220 220 219 219 218 220 220 214 211
0 357 355 352 350 349 346 346 345 340 335 332 326 319 316 316 309 301 295 282 266 263 269 260 248 247 245 239 234 231 233 230 221 215 216 217 218 219 221 220 216 216
2 359 357 354 351 349 347 347 348 346 343 341 340 335 328 326 322 310 295 280 269 263 262 254 249 252 251 246 245 239 233 232 224 212 212 216 216 219 222 222 219 218
3 1 358 356 353 351 350 349 349 350 350 348 349 350 345 341 339 331 313 287 277 271 264 262 257 254 254 257 261 259 245 238 230 217 213 214 215 218 220 222 220 218
4 2 0 359 357 354 354 353 351 351 354 355 356 358 356 353 350 349 349 345 323 300 284 282 275 266 269 270 270 271 261 247 234 222 216 214 215 218 218 219 221 221
5 4 3 2 0 358 357 356 355 353 355 358 360 0 0 360 357 356 2 9 1 345 330 310 295 282 278 274 270 273 272 261 243 225 218 218 217 218 219 218 222 224
7 5 4 4 3 2 360 359 359 357 356 358 360 1 3 4 5 4 6 14 15 9 7 1 334 301 277 269 267 270 273 277 273 251 227 221 220 219 220 219 220 220
8 6 5 5 4 4 3 2 1 1 0 0 1 3 5 7 10 9 8 12 18 18 18 21 12 340 299 276 270 271 268 273 284 276 250 235 226 221 221 218 217 216
10 7 6 5 4 4 5 4 4 4 3 3 3 4 6 9 11 12 10 10 13 18 16 10 4 356 332 301 285 283 277 267 273 277 270 262 247 231 227 221 218 216
10 9 7 6 5 4 5 6 6 6 5 5 4 4 6 9 11 13 12 10 9 12 12 3 354 350 341 324 306 294 284 271 267 270 273 273 265 252 239 226 219 215
10 10 8 7 6 5 6 7 7 7 7 6 6 6 6 8 9 11 12 12 9 8 9 3 351 347 345 334 322 309 293 278 271 269 270 273 271 268 260 242 223 214
12 11 8 7 6 6 7 7 7 8 8 7 7 8 9 9 9 9 10 13 11 9 11 8 355 349 348 340 328 318 303 288 280 275 273 272 272 275 275 264 243 227
11 10 10 9 8 7 6 6 6 7 7 7 6 8 10 10 11 11 9 10 13 13 14 12 5 358 354 349 338 326 312 301 295 288 281 276 274 276 279 275 262 246
10 9 10 10 10 10 8 6 6 6 5 6 6 7 9 9 10 12 11 9 12 14 13 13 11 6 1 357 349 339 328 317 309 302 292 283 277 278 282 281 267 242
12 9 9 10 11 12 11 8 8 7 5 5 5 5 6 7 7 9 12 11 11 12 11 11 12 9 7 5 0 352 344 331 320 313 306 299 288 279 273 264 251 241
14 12 10 10 11 11 11 10 10 10 9 7 8 7 5 6 5 6 10 12 11 11 9 10 12 11 10 9 6 2 356 345 332 320 314 317 305 283 269 230 296 272
16 15 13 13 12 11 11 11 10 10 10 10 12 12 9 9 8 5 7 10 12 13 12 10 11 12 11 11 10 7 4 357 348 334 324 329 331 318 34 66 25 324